[[{"header":{"parameterUnit":"m.s-1","parameterCategory":1,"la1":30.2991,"la2":30.254,"lo1":-89.0895,"lo2":-89.0444,"dy":0.0017,"dx":0.0017,"nx":28,"ny":28,"refTime":"2024-11-23T03:00:00:Z","depth":0,"parameterNumber":2,"parameterNumberName":"U-component_of_WINDS"},"data":[0,0,0,0,0,0,0,0,0,0,0,0,0,0,0,0,0,0,0,0,0,0,0,0,0,0,0,0,0,0,0,0,0,0,0,0,0,0,0,0,0,0,0,0,0,0,0,0,0,0,0,0,0,0,0,0,0,0,2.0594,2.0594,0,2.0574,2.0574,2.0573,2.0497,2.0495,2.0493,2.0492,2.0472,2.0473,2.0474,0,0,0,0,0,0,0,0,0,0,0,0,0,2.0569,2.057,2.0594,2.0594,2.0594,2.0574,2.0574,2.0573,2.0497,2.0495,2.0493,2.0491,2.0472,2.0473,2.0474,0,0,0,0,0,0,0,0,0,0,0,0,0,2.0568,2.057,2.0594,2.0553,2.055,2.0574,2.0574,2.0573,2.0498,2.0495,2.0492,2.049,2.0471,2.0473,2.0475,2.0538,0,0,2.048,2.0481,0,0,0,0,0,0,0,0,2.0568,2.0569,2.056,2.0556,2.0552,2.0535,2.0557,2.0561,2.0498,2.0517,2.0492,2.0489,2.0495,2.0495,2.0497,2.0537,2.0536,2.048,2.0481,2.0482,2.0482,0,0,0,0,0,0,0,2.0568,2.0569,2.0586,2.056,2.0555,2.0537,2.0533,2.0558,2.0521,2.0516,2.051,2.0508,2.0493,2.0496,2.0496,2.0536,2.048,2.0481,2.0482,2.0483,2.0627,2.0629,0,0,0,0,0,0,2.0574,2.057,2.0587,2.0586,2.0554,2.0539,2.0536,2.0543,2.0521,2.0515,2.0511,2.0505,2.0494,2.0494,2.0495,2.0567,2.0482,2.0483,2.0484,2.0624,2.0627,2.063,0,0,0,0,0,0,2.0573,2.0576,2.0588,2.0576,2.0576,2.0542,2.0552,2.0544,2.0547,2.0517,2.0511,2.052,2.0492,2.0493,2.0528,2.0565,2.0484,2.0485,2.062,2.0625,2.0629,2.0713,0,0,0,0,0,0,2.0573,2.0576,2.0599,2.0577,2.0577,2.0621,2.0554,2.0546,2.055,2.0542,2.0524,2.0519,2.049,2.0526,2.0529,2.0566,2.0487,2.0617,2.0622,2.0627,2.0706,2.0719,2.073,0,0,0,0,0,2.0572,2.0624,2.0601,2.0603,2.0605,2.0623,2.0623,2.0588,2.0553,2.0576,2.0558,2.0519,2.0561,2.053,2.0533,2.0571,2.0614,2.0621,2.0627,2.0701,2.0717,2.073,0,0,0,0,0,0,2.0652,2.062,2.0594,2.064,2.0635,2.061,2.0638,2.0606,2.061,2.0603,2.056,2.0557,2.0598,2.0588,2.0554,2.0631,2.0581,2.0589,2.0636,2.0651,2.0663,2.0664,2.0488,0,0,0,0,0,2.0675,2.0691,2.0663,2.0706,2.0705,2.0672,2.0678,2.0652,2.0645,2.0642,2.0626,2.0621,2.0632,2.0641,2.065,2.0705,2.07,2.0733,2.0745,2.0755,2.0761,2.079,2.0804,2.0651,2.0651,2.0651,0,0,2.0722,2.0707,2.072,2.0722,2.0714,2.0733,2.0671,2.0693,2.0706,2.0646,2.0677,2.0666,2.0657,2.0702,2.0721,2.0695,2.0803,2.0763,2.0771,2.0772,2.0798,2.0812,2.0825,2.0655,2.0654,2.0654,0,0,2.0817,2.0808,2.0843,2.0837,2.0826,2.0804,2.0813,2.0793,2.0783,2.0814,2.0769,2.0785,2.0806,2.0802,2.0803,2.0898,2.0863,2.0903,2.0965,2.0993,2.1005,2.1015,2.105,2.1062,2.0909,2.091,2.091,0,2.0878,2.0903,2.0865,2.089,2.0892,2.0838,2.0874,2.087,2.0864,2.0867,2.0838,2.0864,2.0854,2.0898,2.0921,2.0924,2.0932,2.0904,2.1006,2.1016,2.1026,2.1058,2.1071,2.0914,2.0914,2.0913,2.0913,0,2.0978,2.0996,2.1026,2.1021,2.1026,2.1057,2.1024,2.1034,2.1008,2.099,2.1023,2.101,2.1015,2.1024,2.0998,2.1064,2.1048,2.1014,2.0962,2.1046,2.1075,2.1087,2.0921,2.092,2.0918,2.0917,0,0,2.1122,2.1096,2.1107,2.1104,2.1089,2.1103,2.1132,2.1137,2.1147,2.1145,2.1168,2.1187,2.1155,2.1156,2.113,2.1155,2.1231,2.1117,2.1116,2.1139,2.1303,2.133,2.1344,2.1209,2.1211,2.1213,2.1304,0,2.1213,2.1259,2.1226,2.1278,2.1295,2.1244,2.1269,2.1263,2.1247,2.1259,2.1241,2.1256,2.1213,2.1213,2.1235,2.1217,2.1264,2.121,2.123,2.1231,2.1233,2.136,2.1387,2.1474,2.1315,2.1317,2.1319,0,2.1324,2.1327,2.1381,2.1363,2.1369,2.1391,2.1394,2.1406,2.1399,2.1385,2.1387,2.1355,2.1382,2.1332,2.1369,2.1333,2.134,2.1332,2.1335,2.1335,2.128,2.1363,2.1501,2.1514,2.1336,2.1335,2.1334,0,2.1424,2.1441,2.1475,2.1475,2.1455,2.1472,2.1465,2.1454,2.146,2.1463,2.1466,2.1472,2.1475,2.1481,2.1452,2.1418,2.1493,2.144,2.1483,2.1484,2.15,2.15,2.1641,2.1505,2.1505,2.1505,2.1504,0,2.1529,2.1564,2.152,2.1541,2.1579,2.1541,2.158,2.1567,2.1559,2.1577,2.1534,2.1553,2.1512,2.1527,2.1504,2.1539,2.154,2.1531,2.1524,2.1534,2.1536,2.1537,2.1531,2.1508,2.1507,2.1507,2.1506,0,2.1647,2.1619,2.1653,2.1631,2.1627,2.1656,2.1637,2.1656,2.1638,2.1661,2.1665,2.1636,2.165,2.1622,2.1633,2.1617,2.1666,2.165,2.1668,2.1663,2.1708,2.1704,2.1855,2.1873,2.1726,2.1727,2.1729,0,2.1715,2.1741,2.1722,2.1731,2.1726,2.1741,2.1747,2.1711,2.1718,2.1712,2.1732,2.1743,2.175,2.1776,2.1757,2.1765,2.1749,2.1801,2.175,2.1759,2.175,2.1748,2.1751,2.1812,2.1814,2.1815,2.1816,0,2.184,2.1825,2.1834,2.1839,2.1847,2.1849,2.1848,2.1858,2.182,2.1831,2.1846,2.1851,2.1862,2.1874,2.1878,2.1871,2.1838,2.1833,2.1843,2.1853,2.1863,2.1859,2.1697,2.1829,2.1828,2.1827,2.1826,2.1826,2.1935,2.1955,2.1946,2.1958,2.1953,2.1954,2.1971,2.1954,2.1965,2.1971,2.195,2.1969,2.1962,2.1964,2.196,2.1975,2.1952,2.1967,2.1971,2.1975,2.1982,2.1861,2.1976,2.1976,2.1975,2.1975,2.1975,0,2.2057,2.2048,2.206,2.206,2.207,2.2038,2.2035,2.2046,2.2063,2.2059,2.2067,2.2084,2.2095,2.2077,2.2085,2.2101,2.2086,2.2105,2.2103,2.2102,2.2002,2.1993,2.2117,2.2117,2.2116,2.2116,2.2116,2.2116,2.2122,2.2155,2.2139,2.217,2.2161,2.218,2.2181,2.2182,2.2178,2.2199,2.2208,2.2196,2.2186,2.2194,2.2203,2.2197,2.2202,2.2226,2.2216,2.2123,2.2109,2.2096,2.2086,2.2228,2.2228,2.2314,2.2314,2.2315]},{"header":{"parameterUnit":"m.s-1","parameterCategory":1,"la1":30.2991,"la2":30.254,"lo1":-89.0895,"lo2":-89.0444,"dy":0.0017,"dx":0.0017,"nx":28,"ny":28,"refTime":"2024-11-23T03:00:00:Z","depth":0,"parameterNumber":3,"parameterNumberName":"V-component_of_WINDS"},"data":[0,0,0,0,0,0,0,0,0,0,0,0,0,0,0,0,0,0,0,0,0,0,0,0,0,0,0,0,0,0,0,0,0,0,0,0,0,0,0,0,0,0,0,0,0,0,0,0,0,0,0,0,0,0,0,0,0,0,-3.1163,-3.1165,0,-3.1334,-3.1336,-3.1338,-3.1328,-3.1326,-3.1323,-3.1321,-3.1494,-3.15,-3.1507,0,0,0,0,0,0,0,0,0,0,0,0,0,-3.0825,-3.0831,-3.1163,-3.1165,-3.1167,-3.1334,-3.1336,-3.1339,-3.1329,-3.1326,-3.1323,-3.132,-3.1491,-3.15,-3.1508,0,0,0,0,0,0,0,0,0,0,0,0,0,-3.0982,-3.0833,-3.1162,-3.1182,-3.1186,-3.1333,-3.1336,-3.1339,-3.1329,-3.1326,-3.1322,-3.1318,-3.1489,-3.1499,-3.1509,-3.1647,0,0,-3.1541,-3.1545,0,0,0,0,0,0,0,0,-3.0973,-3.0994,-3.1177,-3.1181,-3.1185,-3.1306,-3.1281,-3.1442,-3.133,-3.1275,-3.1321,-3.1317,-3.1434,-3.1449,-3.1489,-3.1655,-3.1663,-3.1542,-3.1548,-3.1552,-3.1555,0,0,0,0,0,0,0,-3.0962,-3.0987,-3.123,-3.118,-3.1185,-3.1182,-3.12,-3.1311,-3.1373,-3.1279,-3.1279,-3.1299,-3.1436,-3.1479,-3.1493,-3.1665,-3.1541,-3.1551,-3.1557,-3.1561,-3.1954,-3.1958,0,0,0,0,0,0,-3.0947,-3.0978,-3.1225,-3.1236,-3.1068,-3.1191,-3.1211,-3.1271,-3.1372,-3.1384,-3.1302,-3.1298,-3.1463,-3.1481,-3.1499,-3.1667,-3.1552,-3.1562,-3.1568,-3.195,-3.1955,-3.196,0,0,0,0,0,0,-3.094,-3.0969,-3.1218,-3.1107,-3.1138,-3.1201,-3.1268,-3.1276,-3.132,-3.1389,-3.14,-3.1336,-3.1461,-3.1484,-3.1611,-3.1673,-3.1567,-3.1576,-3.1945,-3.1951,-3.1957,-3.2005,0,0,0,0,0,0,-3.093,-3.0967,-3.102,-3.1108,-3.1144,-3.1328,-3.1272,-3.1282,-3.1338,-3.1334,-3.1423,-3.1435,-3.146,-3.1595,-3.1621,-3.1686,-3.1584,-3.194,-3.1948,-3.1955,-3.1999,-3.2013,-3.2025,0,0,0,0,0,-3.0918,-3.1026,-3.1023,-3.1053,-3.1213,-3.1331,-3.1352,-3.138,-3.1343,-3.1397,-3.1442,-3.1432,-3.1663,-3.1608,-3.1637,-3.1706,-3.1936,-3.1946,-3.1955,-3.1993,-3.201,-3.2024,0,0,0,0,0,0,-3.0943,-3.1038,-3.1035,-3.1175,-3.1246,-3.133,-3.1398,-3.1397,-3.1478,-3.1471,-3.1501,-3.1522,-3.1648,-3.169,-3.1628,-3.1845,-3.1794,-3.181,-3.1813,-3.183,-3.1843,-3.183,-3.1593,0,0,0,0,0,-3.0965,-3.1054,-3.1132,-3.1248,-3.1284,-3.1335,-3.1388,-3.1404,-3.1477,-3.1506,-3.156,-3.1631,-3.172,-3.1777,-3.1863,-3.2005,-3.2024,-3.2066,-3.2079,-3.209,-3.2103,-3.2181,-3.22,-3.1991,-3.1991,-3.1991,0,0,-3.1011,-3.1074,-3.1128,-3.1255,-3.1311,-3.1402,-3.136,-3.1458,-3.1526,-3.1521,-3.1644,-3.1686,-3.1767,-3.1902,-3.1964,-3.194,-3.2165,-3.2102,-3.211,-3.2117,-3.2193,-3.2212,-3.223,-3.1997,-3.1996,-3.1995,0,0,-3.1141,-3.1198,-3.1301,-3.1359,-3.1445,-3.1478,-3.1503,-3.1588,-3.1616,-3.174,-3.1738,-3.1819,-3.1971,-3.2029,-3.2078,-3.2232,-3.2225,-3.2259,-3.2327,-3.2402,-3.2419,-3.2434,-3.2488,-3.2507,-3.2271,-3.2272,-3.2272,0,-3.1187,-3.1325,-3.1354,-3.1453,-3.1509,-3.151,-3.1614,-3.1668,-3.1777,-3.1815,-3.1787,-3.1979,-3.2033,-3.2182,-3.2219,-3.2259,-3.2288,-3.2248,-3.2414,-3.2429,-3.2444,-3.2496,-3.2516,-3.2275,-3.2275,-3.2274,-3.2274,0,-3.1377,-3.1473,-3.1546,-3.1652,-3.1716,-3.1817,-3.1861,-3.1922,-3.1932,-3.1969,-3.2095,-3.2161,-3.226,-3.2296,-3.2307,-3.2446,-3.2429,-3.2408,-3.2357,-3.2467,-3.2516,-3.2536,-3.228,-3.2279,-3.2278,-3.2277,0,0,-3.1527,-3.1649,-3.1675,-3.1723,-3.1819,-3.1893,-3.1994,-3.2092,-3.2144,-3.2219,-3.2304,-3.2433,-3.2414,-3.2471,-3.2488,-3.2554,-3.2671,-3.2525,-3.2527,-3.2549,-3.2829,-3.2844,-3.2866,-3.2668,-3.2672,-3.2675,-3.2822,0,-3.1666,-3.1847,-3.1876,-3.2034,-3.2122,-3.2125,-3.2213,-3.2281,-3.2318,-3.2398,-3.2438,-3.2529,-3.2498,-3.2532,-3.2598,-3.2643,-3.2728,-3.2633,-3.2746,-3.275,-3.2725,-3.2892,-3.2908,-3.3043,-3.2841,-3.2845,-3.2847,0,-3.1853,-3.1934,-3.2101,-3.2185,-3.2223,-3.2302,-3.2394,-3.2471,-3.2548,-3.257,-3.2634,-3.2643,-3.2747,-3.2693,-3.2837,-3.2772,-3.2821,-3.285,-3.2856,-3.2867,-3.2804,-3.2907,-3.3087,-3.3107,-3.2878,-3.2875,-3.2873,0,-3.1944,-3.2096,-3.2215,-3.2257,-3.2358,-3.2413,-3.2457,-3.2531,-3.2588,-3.2668,-3.2705,-3.2796,-3.2846,-3.2916,-3.295,-3.2907,-3.3092,-3.304,-3.3112,-3.3112,-3.315,-3.3147,-3.334,-3.3183,-3.3182,-3.3182,-3.3182,0,-3.2097,-3.2198,-3.2258,-3.2331,-3.2446,-3.2478,-3.259,-3.2633,-3.2699,-3.278,-3.2788,-3.2864,-3.2904,-3.2986,-3.3013,-3.3128,-3.315,-3.3171,-3.3177,-3.317,-3.3167,-3.3201,-3.3192,-3.3188,-3.3186,-3.3185,-3.3184,0,-3.2218,-3.2262,-3.2392,-3.2478,-3.2501,-3.2582,-3.2654,-3.2725,-3.2763,-3.2865,-3.2891,-3.295,-3.3046,-3.3087,-3.3206,-3.3224,-3.3356,-3.3355,-3.333,-3.3332,-3.3401,-3.3394,-3.3622,-3.3654,-3.3476,-3.3478,-3.3479,0,-3.2311,-3.239,-3.2484,-3.254,-3.2586,-3.2675,-3.2734,-3.2769,-3.283,-3.2924,-3.2983,-3.3081,-3.316,-3.3315,-3.3367,-3.3458,-3.3459,-3.3533,-3.3473,-3.3463,-3.3459,-3.3454,-3.3462,-3.3543,-3.3545,-3.3547,-3.3548,0,-3.2473,-3.2491,-3.2575,-3.2668,-3.2738,-3.2812,-3.2885,-3.2929,-3.2976,-3.3044,-3.3143,-3.3205,-3.3327,-3.3423,-3.3518,-3.3563,-3.3563,-3.3567,-3.3588,-3.3581,-3.3563,-3.3573,-3.3359,-3.3561,-3.3559,-3.3559,-3.3558,-3.3557,-3.2583,-3.2653,-3.273,-3.2824,-3.2882,-3.295,-3.3021,-3.3068,-3.3152,-3.3255,-3.327,-3.3377,-3.3452,-3.3579,-3.3628,-3.3711,-3.3692,-3.3724,-3.3731,-3.3738,-3.3742,-3.3551,-3.3729,-3.3728,-3.3728,-3.3728,-3.3727,0,-3.2744,-3.2794,-3.288,-3.2982,-3.3056,-3.3051,-3.3131,-3.3193,-3.3287,-3.3358,-3.3436,-3.3551,-3.3644,-3.3705,-3.3799,-3.3854,-3.3857,-3.3878,-3.3873,-3.3884,-3.3754,-3.3726,-3.3874,-3.3874,-3.3874,-3.3874,-3.3874,-3.3874,-3.2836,-3.2954,-3.2982,-3.3129,-3.3178,-3.3283,-3.333,-3.3392,-3.3449,-3.3577,-3.3655,-3.3694,-3.3761,-3.386,-3.3946,-3.3961,-3.3995,-3.4017,-3.4031,-3.3908,-3.3893,-3.3878,-3.3852,-3.4024,-3.4025,-3.4154,-3.4155,-3.4156]}]]